• In Deutschland
  • Länderverzeichnis
  • Für 7 Tage
  • Wassertemperatur
  • Satellitenkarten
  • Wetterkarte
  • Widgets
  • user-avatar
    Anmelden

    Stündliche Wetter Lübbecke

    Heute, 24 April, Dienstag

    Zeit Temperatur Niederschläge Wind Luftdruck Luftfeuchtigkeit
    00:00 +8°C° 0 mm 2 m/S 747 mmHg 84%
    01:00 +8°C° 0 mm 2 m/S 747 mmHg 84%
    02:00 +8°C° 0 mm 3 m/S 747 mmHg 84%
    03:00 +7°C° 0 mm 3 m/S 746 mmHg 84%
    04:00 +6°C° 0 mm 4 m/S 746 mmHg 83%
    05:00 +7°C° 0,1 mm 4 m/S 746 mmHg 82%
    06:00 +7°C° 0,1 mm 5 m/S 746 mmHg 80%
    07:00 +7°C° 0,1 mm 6 m/S 746 mmHg 79%
    08:00 +8°C° 0,2 mm 6 m/S 746 mmHg 79%
    09:00 +9°C° 0,2 mm 6 m/S 746 mmHg 80%
    10:00 +10°C° 0,2 mm 6 m/S 746 mmHg 80%
    11:00 +10°C° 0,4 mm 6 m/S 746 mmHg 82%
    12:00 +10°C° 0,4 mm 6 m/S 746 mmHg 84%
    13:00 +9°C° 0,4 mm 6 m/S 746 mmHg 86%
    14:00 +10°C° 0,2 mm 6 m/S 746 mmHg 85%
    15:00 +10°C° 0,2 mm 6 m/S 746 mmHg 84%
    16:00 +10°C° 0,2 mm 5 m/S 746 mmHg 83%
    17:00 +10°C° 0 mm 5 m/S 746 mmHg 85%
    18:00 +11°C° 0 mm 4 m/S 745 mmHg 86%
    19:00 +10°C° 0 mm 3 m/S 745 mmHg 88%
    20:00 +10°C° 0,2 mm 3 m/S 745 mmHg 90%
    21:00 +10°C° 0,2 mm 3 m/S 744 mmHg 91%
    22:00 +10°C° 0,2 mm 3 m/S 744 mmHg 93%
    23:00 +10°C° 0,7 mm 4 m/S 744 mmHg 93%

    Morgen, 25 April, Mittwoch

    Zeit Temperatur Niederschläge Wind Luftdruck Luftfeuchtigkeit
    00:00 +10°C° 0,7 mm 5 m/S 743 mmHg 93%
    01:00 +11°C° 0,7 mm 6 m/S 743 mmHg 93%
    02:00 +11°C° 0,3 mm 6 m/S 742 mmHg 93%
    03:00 +11°C° 0,3 mm 6 m/S 742 mmHg 93%
    04:00 +12°C° 0,3 mm 5 m/S 742 mmHg 93%
    05:00 +12°C° 0,5 mm 5 m/S 742 mmHg 93%
    06:00 +12°C° 0,5 mm 5 m/S 742 mmHg 93%
    07:00 +10°C° 0,5 mm 5 m/S 742 mmHg 93%
    08:00 +10°C° 0,6 mm 5 m/S 742 mmHg 93%
    09:00 +10°C° 0,6 mm 5 m/S 742 mmHg 92%
    10:00 +10°C° 0,6 mm 5 m/S 742 mmHg 92%
    11:00 +10°C° 0,5 mm 5 m/S 742 mmHg 91%
    12:00 +10°C° 0,5 mm 5 m/S 742 mmHg 90%
    13:00 +11°C° 0,5 mm 4 m/S 742 mmHg 89%
    14:00 +12°C° 0,4 mm 5 m/S 742 mmHg 86%
    15:00 +13°C° 0,4 mm 5 m/S 742 mmHg 82%
    16:00 +13°C° 0,4 mm 5 m/S 742 mmHg 78%
    17:00 +12°C° 0,5 mm 5 m/S 742 mmHg 81%
    18:00 +10°C° 0,5 mm 5 m/S 742 mmHg 83%
    19:00 +10°C° 0,5 mm 4 m/S 742 mmHg 85%
    20:00 +8°C° 0,1 mm 4 m/S 743 mmHg 87%
    21:00 +8°C° 0,1 mm 3 m/S 743 mmHg 90%
    22:00 +7°C° 0,1 mm 3 m/S 744 mmHg 92%
    23:00 +7°C° 0 mm 3 m/S 744 mmHg 92%

    übermorgen, 26 April, Donnerstag

    Zeit Temperatur Niederschläge Wind Luftdruck Luftfeuchtigkeit
    00:00 +6°C° 0 mm 4 m/S 744 mmHg 91%
    01:00 +5°C° 0 mm 4 m/S 744 mmHg 91%
    02:00 +5°C° 0 mm 4 m/S 744 mmHg 91%
    03:00 +5°C° 0 mm 5 m/S 744 mmHg 91%
    04:00 +5°C° 0 mm 5 m/S 744 mmHg 91%
    05:00 +5°C° 0,2 mm 6 m/S 744 mmHg 89%
    06:00 +5°C° 0,2 mm 7 m/S 744 mmHg 87%
    07:00 +5°C° 0,2 mm 8 m/S 744 mmHg 85%
    08:00 +6°C° 0,2 mm 8 m/S 745 mmHg 81%
    09:00 +6°C° 0,2 mm 8 m/S 745 mmHg 78%
    10:00 +7°C° 0,2 mm 8 m/S 745 mmHg 74%
    11:00 +9°C° 0,3 mm 8 m/S 746 mmHg 70%
    12:00 +9°C° 0,3 mm 8 m/S 746 mmHg 66%
    13:00 +10°C° 0,3 mm 8 m/S 746 mmHg 62%
    14:00 +10°C° 0,3 mm 8 m/S 746 mmHg 62%
    15:00 +10°C° 0,3 mm 7 m/S 746 mmHg 62%
    16:00 +10°C° 0,3 mm 7 m/S 746 mmHg 62%
    17:00 +9°C° 0,1 mm 6 m/S 746 mmHg 66%
    18:00 +8°C° 0,1 mm 4 m/S 747 mmHg 70%
    19:00 +9°C° 0,1 mm 3 m/S 747 mmHg 74%
    20:00 +8°C° 0 mm 3 m/S 747 mmHg 76%
    21:00 +5°C° 0 mm 3 m/S 747 mmHg 79%
    22:00 +5°C° 0 mm 2 m/S 747 mmHg 81%
    23:00 +4°C° 0 mm 3 m/S 747 mmHg 81%

    27 April, Freitag

    Zeit Temperatur Niederschläge Wind Luftdruck Luftfeuchtigkeit
    00:00 +4°C° 0 mm 3 m/S 747 mmHg 81%
    01:00 +4°C° 0 mm 3 m/S 747 mmHg 82%
    02:00 +3°C° 0 mm 3 m/S 747 mmHg 83%
    03:00 +3°C° 0 mm 3 m/S 747 mmHg 85%
    04:00 +3°C° 0 mm 3 m/S 746 mmHg 86%
    05:00 +4°C° 0 mm 3 m/S 746 mmHg 84%
    06:00 +5°C° 0 mm 3 m/S 746 mmHg 83%
    07:00 +6°C° 0 mm 4 m/S 746 mmHg 81%
    08:00 +7°C° 0 mm 4 m/S 746 mmHg 75%
    09:00 +8°C° 0 mm 4 m/S 746 mmHg 70%
    10:00 +10°C° 0 mm 4 m/S 746 mmHg 65%
    11:00 +11°C° 0,1 mm 4 m/S 746 mmHg 62%
    12:00 +11°C° 0,1 mm 4 m/S 746 mmHg 59%
    13:00 +12°C° 0,1 mm 4 m/S 746 mmHg 56%
    14:00 +12°C° 0,1 mm 3 m/S 746 mmHg 56%
    15:00 +12°C° 0,1 mm 3 m/S 746 mmHg 57%
    16:00 +12°C° 0,1 mm 3 m/S 746 mmHg 58%
    17:00 +12°C° 0,1 mm 2 m/S 746 mmHg 64%
    18:00 +10°C° 0,1 mm 2 m/S 746 mmHg 70%
    19:00 +10°C° 0,1 mm 1 m/S 746 mmHg 76%
    20:00 +9°C° 0 mm 1 m/S 747 mmHg 80%
    21:00 +8°C° 0 mm 1 m/S 747 mmHg 84%
    22:00 +7°C° 0 mm 1 m/S 747 mmHg 87%
    23:00 +6°C° 0 mm 1 m/S 747 mmHg 88%

    28 April, Samstag

    Zeit Temperatur Niederschläge Wind Luftdruck Luftfeuchtigkeit
    00:00 +6°C° 0 mm 1 m/S 747 mmHg 89%
    01:00 +4°C° 0 mm 0 m/S 747 mmHg 90%
    02:00 +5°C° 0 mm 1 m/S 747 mmHg 91%
    03:00 +5°C° 0 mm 1 m/S 747 mmHg 91%
    04:00 +5°C° 0 mm 1 m/S 747 mmHg 92%
    05:00 +5°C° 0 mm 1 m/S 748 mmHg 90%
    06:00 +6°C° 0 mm 1 m/S 748 mmHg 87%
    07:00 +7°C° 0 mm 1 m/S 748 mmHg 85%
    08:00 +8°C° 0 mm 2 m/S 748 mmHg 78%
    09:00 +10°C° 0 mm 2 m/S 748 mmHg 71%
    10:00 +11°C° 0 mm 3 m/S 749 mmHg 64%
    11:00 +12°C° 0 mm 3 m/S 748 mmHg 61%
    12:00 +13°C° 0 mm 3 m/S 748 mmHg 57%
    13:00 +14°C° 0 mm 3 m/S 748 mmHg 54%
    14:00 +14°C° 0 mm 3 m/S 748 mmHg 55%
    15:00 +14°C° 0 mm 4 m/S 747 mmHg 56%
    16:00 +14°C° 0 mm 4 m/S 747 mmHg 57%
    17:00 +14°C° 0 mm 4 m/S 747 mmHg 62%
    18:00 +13°C° 0 mm 4 m/S 747 mmHg 68%
    19:00 +12°C° 0 mm 4 m/S 747 mmHg 73%
    20:00 +10°C° 0 mm 4 m/S 747 mmHg 76%
    21:00 +8°C° 0 mm 4 m/S 747 mmHg 78%
    22:00 +7°C° 0 mm 4 m/S 747 mmHg 81%
    23:00 +7°C° 0 mm 4 m/S 747 mmHg 81%

    29 April, Sonntag

    Zeit Temperatur Niederschläge Wind Luftdruck Luftfeuchtigkeit
    00:00 +6°C° 0 mm 4 m/S 746 mmHg 81%
    01:00 +6°C° 0 mm 4 m/S 746 mmHg 81%
    02:00 +6°C° 0 mm 4 m/S 746 mmHg 81%
    03:00 +6°C° 0 mm 5 m/S 745 mmHg 81%
    04:00 +6°C° 0 mm 5 m/S 745 mmHg 81%
    05:00 +6°C° 0 mm 5 m/S 745 mmHg 81%
    06:00 +7°C° 0 mm 6 m/S 744 mmHg 80%
    07:00 +7°C° 0 mm 6 m/S 744 mmHg 79%
    08:00 +9°C° 0 mm 7 m/S 744 mmHg 75%
    09:00 +11°C° 0 mm 7 m/S 743 mmHg 72%
    10:00 +13°C° 0 mm 8 m/S 743 mmHg 68%
    11:00 +15°C° 0 mm 8 m/S 742 mmHg 67%
    12:00 +16°C° 0 mm 8 m/S 742 mmHg 65%
    13:00 +17°C° 0 mm 8 m/S 741 mmHg 63%
    14:00 +17°C° 0,3 mm 7 m/S 741 mmHg 68%
    15:00 +16°C° 0,3 mm 6 m/S 740 mmHg 73%
    16:00 +16°C° 0,3 mm 5 m/S 740 mmHg 78%
    17:00 +15°C° 2,4 mm 4 m/S 740 mmHg 83%
    18:00 +14°C° 2,4 mm 4 m/S 740 mmHg 87%
    19:00 +13°C° 2,4 mm 3 m/S 740 mmHg 92%
    20:00 +13°C° 0,5 mm 3 m/S 739 mmHg 93%
    21:00 +12°C° 0,5 mm 3 m/S 739 mmHg 94%
    22:00 +12°C° 0,5 mm 3 m/S 739 mmHg 95%
    23:00 +11°C° 0 mm 3 m/S 739 mmHg 95%
    Mehr zeigen